Stündliche Wetter Abejuela

Heute, 17 Juni, Donnerstag

Zeit Temperatur Niederschläge Wind Luftdruck Luftfeuchtigkeit
00:00 +16°C° 0.3 mm 1 m/S 648 mmHg 71%
01:00 +16°C° 0.3 mm 1 m/S 648 mmHg 72%
02:00 +15°C° 0.3 mm 1 m/S 648 mmHg 72%
03:00 +15°C° 0.3 mm 1 m/S 647 mmHg 73%
04:00 +15°C° 0.2 mm 1 m/S 648 mmHg 74%
05:00 +15°C° 0.2 mm 1 m/S 648 mmHg 75%
06:00 +15°C° 0.2 mm 1 m/S 648 mmHg 76%
07:00 +15°C° 0.5 mm 1 m/S 648 mmHg 73%
08:00 +16°C° 0.5 mm 1 m/S 648 mmHg 69%
09:00 +17°C° 0.5 mm 2 m/S 648 mmHg 66%
10:00 +17°C° 1.6 mm 3 m/S 648 mmHg 66%
11:00 +18°C° 1.6 mm 4 m/S 648 mmHg 66%
12:00 +17°C° 1.6 mm 5 m/S 648 mmHg 67%
13:00 +19°C° 1.5 mm 5 m/S 648 mmHg 62%
14:00 +19°C° 1.5 mm 5 m/S 648 mmHg 58%
15:00 +19°C° 1.5 mm 5 m/S 648 mmHg 54%
16:00 +19°C° 0 mm 5 m/S 648 mmHg 51%
17:00 +20°C° 0 mm 5 m/S 648 mmHg 48%
18:00 +20°C° 0 mm 5 m/S 648 mmHg 45%
19:00 +18°C° 0 mm 4 m/S 649 mmHg 49%
20:00 +17°C° 0 mm 3 m/S 649 mmHg 53%
21:00 +16°C° 0 mm 2 m/S 649 mmHg 57%
22:00 +15°C° 0 mm 2 m/S 649 mmHg 57%
23:00 +15°C° 0 mm 2 m/S 649 mmHg 58%

Morgen, 18 Juni, Freitag

Zeit Temperatur Niederschläge Wind Luftdruck Luftfeuchtigkeit
00:00 +15°C° 0 mm 1 m/S 649 mmHg 58%
01:00 +14°C° 0 mm 1 m/S 649 mmHg 60%
02:00 +14°C° 0 mm 1 m/S 648 mmHg 62%
03:00 +13°C° 0 mm 0 m/S 648 mmHg 65%
04:00 +14°C° 0 mm 1 m/S 649 mmHg 63%
05:00 +15°C° 0 mm 1 m/S 649 mmHg 61%
06:00 +15°C° 0 mm 1 m/S 650 mmHg 59%
07:00 +18°C° 0 mm 1 m/S 650 mmHg 53%
08:00 +19°C° 0 mm 2 m/S 651 mmHg 48%
09:00 +20°C° 0 mm 2 m/S 651 mmHg 42%
10:00 +21°C° 0 mm 3 m/S 651 mmHg 42%
11:00 +22°C° 0 mm 5 m/S 651 mmHg 42%
12:00 +23°C° 0 mm 6 m/S 652 mmHg 42%
13:00 +22°C° 0 mm 6 m/S 652 mmHg 45%
14:00 +21°C° 0 mm 6 m/S 651 mmHg 49%
15:00 +21°C° 0 mm 6 m/S 651 mmHg 53%
16:00 +20°C° 0 mm 5 m/S 651 mmHg 53%
17:00 +20°C° 0 mm 4 m/S 651 mmHg 54%
18:00 +20°C° 0 mm 3 m/S 651 mmHg 54%
19:00 +18°C° 0 mm 3 m/S 651 mmHg 66%
20:00 +17°C° 0 mm 2 m/S 650 mmHg 77%
21:00 +15°C° 0 mm 2 m/S 650 mmHg 88%
22:00 +15°C° 0 mm 2 m/S 650 mmHg 87%
23:00 +15°C° 0 mm 1 m/S 650 mmHg 86%

übermorgen, 19 Juni, Samstag

Zeit Temperatur Niederschläge Wind Luftdruck Luftfeuchtigkeit
00:00 +14°C° 0 mm 1 m/S 650 mmHg 85%
01:00 +14°C° 0 mm 1 m/S 649 mmHg 83%
02:00 +14°C° 0 mm 1 m/S 649 mmHg 82%
03:00 +14°C° 0 mm 1 m/S 649 mmHg 80%
04:00 +14°C° 0.4 mm 1 m/S 649 mmHg 79%
05:00 +15°C° 0.4 mm 1 m/S 649 mmHg 78%
06:00 +15°C° 0.4 mm 1 m/S 649 mmHg 76%
07:00 +16°C° 0.4 mm 1 m/S 649 mmHg 74%
08:00 +16°C° 0.4 mm 1 m/S 649 mmHg 71%
09:00 +17°C° 0.4 mm 2 m/S 650 mmHg 68%
10:00 +18°C° 0.1 mm 2 m/S 650 mmHg 64%
11:00 +19°C° 0.1 mm 3 m/S 650 mmHg 61%
12:00 +20°C° 0.1 mm 4 m/S 651 mmHg 57%
13:00 +20°C° 0.2 mm 4 m/S 650 mmHg 57%
14:00 +20°C° 0.2 mm 4 m/S 650 mmHg 57%
15:00 +19°C° 0.2 mm 4 m/S 650 mmHg 57%
16:00 +19°C° 0 mm 4 m/S 650 mmHg 55%
17:00 +19°C° 0 mm 4 m/S 650 mmHg 53%
18:00 +19°C° 0 mm 4 m/S 649 mmHg 51%
19:00 +18°C° 0 mm 3 m/S 649 mmHg 54%
20:00 +17°C° 0 mm 2 m/S 650 mmHg 56%
21:00 +16°C° 0 mm 1 m/S 650 mmHg 59%
22:00 +15°C° 0 mm 2 m/S 649 mmHg 57%
23:00 +15°C° 0 mm 2 m/S 649 mmHg 55%

20 Juni, Sonntag

Zeit Temperatur Niederschläge Wind Luftdruck Luftfeuchtigkeit
00:00 +15°C° 0 mm 2 m/S 649 mmHg 52%
01:00 +14°C° 0 mm 2 m/S 649 mmHg 52%
02:00 +14°C° 0 mm 2 m/S 648 mmHg 52%
03:00 +13°C° 0 mm 2 m/S 648 mmHg 52%
04:00 +14°C° 0 mm 2 m/S 648 mmHg 52%
05:00 +14°C° 0 mm 2 m/S 648 mmHg 53%
06:00 +14°C° 0 mm 2 m/S 648 mmHg 54%
07:00 +14°C° 0 mm 3 m/S 649 mmHg 50%
08:00 +15°C° 0 mm 4 m/S 649 mmHg 47%
09:00 +16°C° 0 mm 5 m/S 649 mmHg 44%
10:00 +17°C° 0 mm 5 m/S 650 mmHg 39%
11:00 +20°C° 0 mm 6 m/S 650 mmHg 35%
12:00 +21°C° 0 mm 6 m/S 650 mmHg 30%
13:00 +21°C° 0 mm 6 m/S 650 mmHg 30%
14:00 +21°C° 0 mm 6 m/S 650 mmHg 31%
15:00 +22°C° 0 mm 7 m/S 649 mmHg 31%
16:00 +21°C° 0 mm 6 m/S 649 mmHg 32%
17:00 +21°C° 0 mm 6 m/S 649 mmHg 33%
18:00 +20°C° 0 mm 6 m/S 649 mmHg 34%
19:00 +19°C° 0 mm 5 m/S 649 mmHg 41%
20:00 +17°C° 0 mm 3 m/S 649 mmHg 47%
21:00 +16°C° 0 mm 2 m/S 649 mmHg 53%
22:00 +15°C° 0 mm 2 m/S 648 mmHg 55%
23:00 +15°C° 0 mm 2 m/S 648 mmHg 57%

21 Juni, Montag

Zeit Temperatur Niederschläge Wind Luftdruck Luftfeuchtigkeit
00:00 +14°C° 0 mm 2 m/S 648 mmHg 60%
01:00 +14°C° 0 mm 2 m/S 647 mmHg 62%
02:00 +13°C° 0 mm 2 m/S 647 mmHg 64%
03:00 +13°C° 0 mm 2 m/S 647 mmHg 67%
04:00 +13°C° 0 mm 2 m/S 648 mmHg 66%
05:00 +14°C° 0 mm 2 m/S 648 mmHg 66%
06:00 +14°C° 0 mm 2 m/S 648 mmHg 66%
07:00 +14°C° 0 mm 3 m/S 649 mmHg 62%
08:00 +17°C° 0 mm 4 m/S 649 mmHg 59%
09:00 +17°C° 0 mm 6 m/S 649 mmHg 55%
10:00 +19°C° 0 mm 6 m/S 650 mmHg 49%
11:00 +20°C° 0 mm 6 m/S 650 mmHg 43%
12:00 +21°C° 0 mm 6 m/S 650 mmHg 38%
13:00 +22°C° 0 mm 6 m/S 650 mmHg 35%
14:00 +22°C° 0 mm 6 m/S 650 mmHg 32%
15:00 +23°C° 0 mm 7 m/S 650 mmHg 29%
16:00 +22°C° 0 mm 6 m/S 650 mmHg 28%
17:00 +22°C° 0 mm 5 m/S 650 mmHg 28%
18:00 +21°C° 0 mm 5 m/S 650 mmHg 27%
19:00 +20°C° 0 mm 4 m/S 650 mmHg 30%
20:00 +18°C° 0 mm 3 m/S 650 mmHg 33%
21:00 +16°C° 0 mm 2 m/S 649 mmHg 35%
22:00 +16°C° 0 mm 2 m/S 649 mmHg 37%
23:00 +15°C° 0 mm 2 m/S 649 mmHg 39%

22 Juni, Dienstag

Zeit Temperatur Niederschläge Wind Luftdruck Luftfeuchtigkeit
00:00 +15°C° 0 mm 1 m/S 649 mmHg 41%
01:00 +14°C° 0 mm 1 m/S 649 mmHg 42%
02:00 +14°C° 0 mm 1 m/S 649 mmHg 43%
03:00 +13°C° 0 mm 2 m/S 648 mmHg 44%
04:00 +14°C° 0 mm 1 m/S 649 mmHg 43%
05:00 +15°C° 0 mm 1 m/S 649 mmHg 43%
06:00 +16°C° 0 mm 1 m/S 650 mmHg 42%
07:00 +18°C° 0 mm 1 m/S 650 mmHg 38%
08:00 +20°C° 0 mm 1 m/S 651 mmHg 33%
09:00 +21°C° 0 mm 2 m/S 651 mmHg 29%
10:00 +23°C° 0 mm 2 m/S 652 mmHg 29%
11:00 +24°C° 0 mm 3 m/S 652 mmHg 28%
12:00 +23°C° 0 mm 4 m/S 652 mmHg 28%
13:00 +25°C° 0 mm 4 m/S 652 mmHg 28%
14:00 +25°C° 0 mm 5 m/S 652 mmHg 29%
15:00 +25°C° 0 mm 5 m/S 652 mmHg 30%
16:00 +23°C° 0 mm 5 m/S 652 mmHg 34%
17:00 +22°C° 0 mm 4 m/S 652 mmHg 38%
18:00 +21°C° 0 mm 3 m/S 652 mmHg 42%
19:00 +19°C° 0 mm 3 m/S 652 mmHg 50%
20:00 +18°C° 0 mm 2 m/S 652 mmHg 58%
21:00 +16°C° 0 mm 1 m/S 652 mmHg 66%
22:00 +16°C° 0 mm 1 m/S 652 mmHg 69%
23:00 +15°C° 0 mm 1 m/S 652 mmHg 72%
Mehr zeigen

Wir brauchen deine Erlaubnis

Meteoprog und unser Service Anbieter werden persönliche Daten aufbewahren, so wie Cookies, Geräte Bezeichnung oder ähnliche Technologien von deinem Gerät und Prozess, so wie Persönliche Daten Inhalte und Werbungen, genauso wie social Media und den Verkehr zu analysieren.

  • Aufbewahrung und/oder Zugang zu deiner Geräte Informationen.

    Cookies, Geräte Bezeichnung oder andere Informationen, können aufbewahrt oder Zugang zu deinem Gerät erhalten, für den Grund, der oben angegeben wird.

  • Personalisierte Werbung und Inhalte, Messungen, Einblick in das Publikum und Produkt Entwicklung.

    Werbungen und Inhalte können personalisiert werden, basierend auf ein Profil. Mehr Daten können besser personalisierte Werbungen und Inhalte hinzufügen. Werbung und Inhalte können gezeigt und gemessen werden. Einblicke über das Publikum, welche die Werbung gesehen haben und den Inhalt, können abgeleitet werden. So wie Daten können genutzt werden, um es zu verbessern oder die Benutzer Erfahrung zu verbessern das System und die Software.

Wenn du “Ich stimme zu” klickst, erlaubst du uns, die Cookies zu benutzen die Geräte Bezeichnung, den Web oder ähnliche Technologien zu benutzen. Deine Settings, können in deinem Gerät bei deinem Browser geändert werden.

Für den bestimmten Zweck, berechtigten Interessen beruhen darauf, mehr als auf den Inhalt. Du kannst mehr darüber in unseren Privaten und Cookie Politik lesen.